Attalla, AL

7:00 PM CST on January 24, 2017 (GMT -0600)
Gadsden Municipal

Weather History for KGAD - February, 2015

Change the Weather History Date:

Monday, February 2, 2015

  Actual Average Record
Temperature  
Mean Temperature 38 °F -  
Max Temperature 53 °F 51 °F 78 °F (2016)
Min Temperature 23 °F 32 °F 7 °F (1951)
Degree Days  
Heating Degree Days 27    
Moisture  
Dew Point 23 °F    
Average Humidity 66    
Maximum Humidity 86    
Minimum Humidity 52    
Precipitation  
Precipitation 0.00 in - - ()
Sea Level Pressure  
Sea Level Pressure 30.11 in    
Wind  
Wind Speed 12 mph (NW)    
Max Wind Speed 23 mph    
Max Gust Speed 32 mph    
Visibility 10 miles    
Events      
Averages and records for this station are not official NWS values.
T = Trace of Precipitation, MM = Missing Value Source: NWS Daily Summary

Daily Weather History Graph

Daily Weather History Graph

Search for Another Location

Airport or City:

Trip Planner

Search our weather history database for the weather conditions in past years. The results will help you decide how hot, cold, wet, or windy it might be!

Date:

Astronomy

Feb. 02, 2015 Rise Set
Actual Time 6:40 AM CST 5:15 PM CST
Civil Twilight 6:14 AM CST 5:41 PM CST
Nautical Twilight 5:44 AM CST 6:11 PM CST
Astronomical Twilight 5:15 AM CST 6:41 PM CST
Moon 4:26 PM CST (2/2) 5:30 AM CST (2/2)
Length of Visible Light 11h 27m
Length of Day
10h 35m
Waxing Gibbous, 99% of the Moon is Illuminated
Feb 2
Waxing Gibbous
Feb 3
Full
Feb 11
Last Quarter
Feb 18
New
Feb 25
First Quarter

Hourly Weather History & Observations

Time (CST) Temp. Windchill Dew Point Humidity Pressure Visibility Wind Dir Wind Speed Gust Speed Precip Events Conditions
12:15 AM - - - N/A% 29.76 in 10.0 mi West 11.5 mph 19.6 mph N/A   Overcast
12:35 AM - - - N/A% 29.77 in 10.0 mi West 15.0 mph 23.0 mph N/A   Overcast
12:55 AM 53.6 °F - 44.6 °F 72% 29.78 in 10.0 mi West 8.1 mph - N/A   Overcast
1:15 AM - - - N/A% 29.78 in 10.0 mi West 13.8 mph 19.6 mph N/A   Overcast
1:35 AM - - - N/A% 29.78 in 10.0 mi West 13.8 mph 20.7 mph N/A   Mostly Cloudy
1:55 AM 50.0 °F - 39.2 °F 66% 29.79 in 10.0 mi West 18.4 mph 23.0 mph N/A   Partly Cloudy
2:15 AM - - - N/A% 29.80 in 10.0 mi West 9.2 mph 19.6 mph N/A   Scattered Clouds
2:35 AM 48.2 °F - 41.0 °F 76% 29.81 in 10.0 mi West 15.0 mph 20.7 mph N/A   Overcast
2:55 AM - - - N/A% 29.84 in 10.0 mi WNW 23.0 mph 32.2 mph N/A   Overcast
3:15 AM - - - N/A% 29.85 in 10.0 mi WNW 18.4 mph 26.5 mph N/A   Overcast
3:35 AM - - - N/A% 29.87 in 10.0 mi WNW 11.5 mph 23.0 mph N/A   Overcast
3:55 AM 42.8 °F 35.4 °F 30.2 °F 61% 29.88 in 10.0 mi West 15.0 mph - N/A   Overcast
4:15 AM 42.8 °F 37.0 °F 30.2 °F 61% 29.89 in 10.0 mi WNW 10.4 mph 17.3 mph N/A   Overcast
4:35 AM 42.8 °F 37.0 °F 30.2 °F 61% 29.89 in 10.0 mi WNW 10.4 mph - N/A   Overcast
4:55 AM 41.0 °F 34.3 °F 30.2 °F 65% 29.89 in 10.0 mi WNW 11.5 mph 18.4 mph N/A   Overcast
5:15 AM 41.0 °F 37.1 °F 30.2 °F 65% 29.91 in 10.0 mi West 5.8 mph - N/A   Overcast
5:35 AM - - - N/A% 29.92 in 10.0 mi WNW 19.6 mph 26.5 mph N/A   Overcast
5:55 AM - - - N/A% 29.93 in 10.0 mi WNW 13.8 mph 24.2 mph N/A   Overcast
6:15 AM - - - N/A% 29.96 in 10.0 mi WNW 16.1 mph 26.5 mph N/A   Overcast
6:35 AM - - - N/A% 29.98 in 10.0 mi WNW 15.0 mph 24.2 mph N/A   Overcast
6:55 AM 37.4 °F 29.3 °F 26.6 °F 65% 30.00 in 10.0 mi WNW 12.7 mph 24.2 mph N/A   Overcast
7:15 AM 37.4 °F 29.3 °F 26.6 °F 65% 30.01 in 10.0 mi WNW 12.7 mph 20.7 mph N/A   Overcast
7:35 AM 37.4 °F 29.3 °F 26.6 °F 65% 30.02 in 10.0 mi WNW 12.7 mph 23.0 mph N/A   Overcast
7:55 AM - - - N/A% 30.04 in 10.0 mi NW 15.0 mph 25.3 mph N/A   Overcast
8:15 AM 37.4 °F 28.9 °F 26.6 °F 65% 30.06 in 10.0 mi WNW 13.8 mph 21.9 mph N/A   Overcast
8:35 AM 35.6 °F 25.9 °F 26.6 °F 70% 30.08 in 10.0 mi NW 16.1 mph 24.2 mph N/A   Overcast
8:55 AM 37.4 °F 28.5 °F 26.6 °F 65% 30.08 in 10.0 mi NW 15.0 mph 18.4 mph N/A   Overcast
9:15 AM 35.6 °F 28.0 °F 26.6 °F 70% 30.10 in 10.0 mi WNW 10.4 mph 23.0 mph N/A   Mostly Cloudy
9:35 AM 37.4 °F 29.3 °F 24.8 °F 60% 30.11 in 10.0 mi WNW 12.7 mph 19.6 mph N/A   Mostly Cloudy
9:55 AM - - - N/A% 30.13 in 10.0 mi NW 16.1 mph 23.0 mph N/A   Overcast
10:15 AM 35.6 °F 25.2 °F 24.8 °F 65% 30.14 in 10.0 mi WNW 18.4 mph 26.5 mph N/A   Overcast
10:35 AM 35.6 °F 26.2 °F 24.8 °F 65% 30.15 in 10.0 mi NW 15.0 mph 23.0 mph N/A   Overcast
10:55 AM 35.6 °F 26.6 °F 24.8 °F 65% 30.16 in 10.0 mi NNW 13.8 mph 23.0 mph N/A   Overcast
11:15 AM 35.6 °F 25.5 °F 24.8 °F 65% 30.17 in 10.0 mi WNW 17.3 mph 21.9 mph N/A   Overcast
11:35 AM 33.8 °F 25.3 °F 24.8 °F 70% 30.18 in 10.0 mi NW 11.5 mph 19.6 mph N/A   Overcast
11:55 AM 33.8 °F 23.9 °F 24.8 °F 70% 30.18 in 10.0 mi WNW 15.0 mph 24.2 mph N/A   Overcast
12:15 PM 33.8 °F 27.0 °F 23.0 °F 65% 30.18 in 10.0 mi NNW 8.1 mph 19.6 mph N/A   Overcast
12:35 PM 33.8 °F 24.8 °F 23.0 °F 65% 30.18 in 10.0 mi NW 12.7 mph 18.4 mph N/A   Overcast
12:55 PM 33.8 °F 23.5 °F 21.2 °F 60% 30.18 in 10.0 mi NNW 16.1 mph 20.7 mph N/A   Overcast
1:15 PM 35.6 °F 27.5 °F 21.2 °F 56% 30.18 in 10.0 mi NNW 11.5 mph 18.4 mph N/A   Overcast
1:35 PM 33.8 °F 23.5 °F 21.2 °F 60% 30.18 in 10.0 mi NW 16.1 mph 21.9 mph N/A   Overcast
1:55 PM 35.6 °F 25.9 °F 21.2 °F 56% 30.18 in 10.0 mi NW 16.1 mph 20.7 mph N/A   Overcast
2:15 PM 33.8 °F 23.9 °F 21.2 °F 60% 30.19 in 10.0 mi NW 15.0 mph - N/A   Overcast
2:35 PM 33.8 °F 23.5 °F 21.2 °F 60% 30.20 in 10.0 mi NNW 16.1 mph 19.6 mph N/A   Overcast
2:55 PM 33.8 °F 25.8 °F 21.2 °F 60% 30.21 in 10.0 mi NW 10.4 mph 20.7 mph N/A   Overcast
3:15 PM 35.6 °F 27.1 °F 21.2 °F 56% 30.21 in 10.0 mi North 12.7 mph 21.9 mph N/A   Mostly Cloudy
3:35 PM 35.6 °F 28.0 °F 19.4 °F 52% 30.21 in 10.0 mi North 10.4 mph - N/A   Mostly Cloudy
3:55 PM 35.6 °F 27.5 °F 19.4 °F 52% 30.21 in 10.0 mi North 11.5 mph - N/A   Partly Cloudy
4:15 PM 33.8 °F 25.3 °F 19.4 °F 56% 30.22 in 10.0 mi NNW 11.5 mph - N/A   Partly Cloudy
4:35 PM 33.8 °F 27.0 °F 19.4 °F 56% 30.23 in 10.0 mi NNW 8.1 mph - N/A   Partly Cloudy
4:55 PM 33.8 °F 25.8 °F 19.4 °F 56% 30.23 in 10.0 mi NNW 10.4 mph - N/A   Partly Cloudy
5:15 PM 33.8 °F 26.4 °F 19.4 °F 56% 30.24 in 10.0 mi NNW 9.2 mph - N/A   Clear
5:35 PM 32.0 °F 26.4 °F 19.4 °F 60% 30.25 in 10.0 mi NNW 5.8 mph - N/A   Clear
5:55 PM 30.2 °F 26.7 °F 19.4 °F 64% 30.25 in 10.0 mi NNW 3.5 mph - N/A   Clear
6:15 PM 30.2 °F 26.7 °F 17.6 °F 60% 30.26 in 10.0 mi WNW 3.5 mph - N/A   Clear
6:35 PM 30.2 °F - 17.6 °F 60% 30.27 in 10.0 mi Calm Calm - N/A   Clear
6:55 PM 28.4 °F - 17.6 °F 64% 30.27 in 10.0 mi Calm Calm - N/A   Clear
7:15 PM 28.4 °F - 19.4 °F 69% 30.26 in 10.0 mi Calm Calm - N/A   Clear
7:35 PM 28.4 °F - 19.4 °F 69% 30.26 in 10.0 mi Calm Calm - N/A   Clear
7:55 PM 26.6 °F - 19.4 °F 74% 30.27 in 10.0 mi Calm Calm - N/A   Clear
8:15 PM 26.6 °F 22.6 °F 17.6 °F 69% 30.28 in 10.0 mi WNW 3.5 mph - N/A   Clear
8:35 PM 24.8 °F - 19.4 °F 80% 30.28 in 10.0 mi Calm Calm - N/A   Clear
8:55 PM 24.8 °F - 19.4 °F 80% 30.28 in 10.0 mi Calm Calm - N/A   Clear
9:15 PM 26.6 °F - 19.4 °F 74% 30.28 in 10.0 mi Calm Calm - N/A   Clear
9:35 PM 24.8 °F 20.5 °F 19.4 °F 80% 30.29 in 10.0 mi North 3.5 mph - N/A   Clear
9:55 PM 26.6 °F - 19.4 °F 74% 30.29 in 10.0 mi Calm Calm - N/A   Clear
10:15 PM 24.8 °F 20.5 °F 17.6 °F 74% 30.31 in 10.0 mi NW 3.5 mph - N/A   Clear
10:35 PM 24.8 °F - 17.6 °F 74% 30.32 in 10.0 mi Calm Calm - N/A   Clear
10:55 PM 23.0 °F - 19.4 °F 86% 30.32 in 10.0 mi Calm Calm - N/A   Clear
11:15 PM 23.0 °F - 17.6 °F 80% 30.32 in 10.0 mi Calm Calm - N/A   Clear
11:35 PM 23.0 °F - 17.6 °F 80% 30.30 in 10.0 mi Calm Calm - N/A   Clear
11:55 PM - - - N/A% 30.30 in 10.0 mi Calm Calm - N/A   Clear